Overview Statistics Trail Chart Weather Telemetry Raw packets
 

This is the latest recevied weather packets stored in our database for station/object N7IGG. If no packets are shown the sender has not sent any weather packets the latest 10 day(s).

<< 68 69 70 71 72 73 74 >>
Time Temp. Humidity Pressure Rain* Wind** Luminosity Snow
1777689439 18.33° C 62% 1014.7 hPa 0 mm - 11 W/m² -
1777689136 18.33° C 62% 1014.6 hPa 0 mm - 12 W/m² -
1777688834 18.33° C 62% 1014.5 hPa 0 mm - 12 W/m² -
1777688530 18.33° C 62% 1014.5 hPa 0 mm - 16 W/m² -
1777688227 18.33° C 63% 1014.5 hPa 0 mm - 23 W/m² -
1777687924 18.33° C 63% 1014.4 hPa 0 mm - 31 W/m² -
1777687621 18.33° C 64% 1014.5 hPa 0 mm - 46 W/m² -
1777687318 18.33° C 63% 1014.4 hPa 0 mm - 50 W/m² -
1777687016 18.33° C 63% 1014.3 hPa 0 mm - 45 W/m² -
1777686712 18.33° C 63% 1014.6 hPa 0 mm - 55 W/m² -
1777686410 18.33° C 62% 1014.6 hPa 0 mm - 40 W/m² -
1777686107 18.89° C 61% 1014.5 hPa 0 mm - 35 W/m² -
1777685803 18.89° C 61% 1014.4 hPa 0 mm - 44 W/m² -
1777685498 19.44° C 59% 1014.5 hPa 0 mm - 61 W/m² -
1777685196 19.44° C 57% 1014.5 hPa 0 mm - 84 W/m² -
1777684894 20° C 56% 1014.7 hPa 0 mm - 97 W/m² -
1777684590 20° C 56% 1014.7 hPa 0 mm - 160 W/m² -
1777684286 20° C 56% 1014.6 hPa 0 mm - 128 W/m² -
1777683984 20° C 56% 1014.7 hPa 0 mm - 138 W/m² -
1777683680 20.56° C 55% 1014.7 hPa 0 mm - 128 W/m² -
1777683378 20.56° C 54% 1014.7 hPa 0 mm - 324 W/m² -
1777683075 20° C 55% 1014.7 hPa 0 mm - 191 W/m² -
1777682771 20° C 55% 1014.9 hPa 0 mm - 226 W/m² -
1777682468 20° C 55% 1014.6 hPa 0 mm - 133 W/m² -
1777682166 20.56° C 55% 1014.6 hPa 0 mm - 158 W/m² -

* Rain latest hour (hover to see other rain measurements)
** Current wind speed in m/s (hover to see current wind gust speed)